Location: Newark
(42.9858°N, 0.6717°E)
Time: 21:09:54
(UTC+00:00)

S-56A Canister/Altair - Pass Details

Date: 28 November 2019
Orbit: 633 x 2499 km, 38.9° (Epoch: 11 December)

Event Time Altitude Azimuth Distance (km) Brightness Sun altitude
Rises 16:32:34 0° 266° (W) 5,814 13.5 -2.0°
Reaches altitude 10° 16:36:45 10° 265° (W) 4,592 12.9 -2.7°
Maximum altitude 16:48:42 70° 185° (S) 1,645 9.3 -4.7°
Drops below altitude 10° 16:56:30 10° 104° (ESE) 3,087 10.1 -6.0°
Enters shadow 16:58:48 - 101° (ESE) 3,845 10.6 -6.4°
Sets 16:58:48 0° 101° (ESE) 3,846 - -6.4°
